period_start,C,m1,H,J0,J1,J2,J3,J4,J5,JA,JB,JC,JD,JJ,JK,JN,#
2013-08-06 00:00:07,0.00,0.68,0.00,27.75,30.59,32.94,5.97,31.13,1005.87,2038.99,3143.99,3133.01,3400.98,350.69,316.11,15.72,0000 0000 0000 0000 000000
2013-08-06 00:01:08,0.00,0.68,0.00,27.76,30.59,32.96,5.83,31.17,1005.86,2038.99,3143.99,3133.03,3400.99,349.84,315.32,15.72,0000 0000 0000 0000 000000
2013-08-06 00:02:08,0.00,0.68,0.00,27.79,30.60,32.98,5.95,31.08,1005.83,2038.99,3144.00,3133.01,3400.99,350.52,315.90,15.73,0000 0000 0000 0000 000000
2013-08-06 00:03:08,0.00,0.68,0.00,27.78,30.60,32.97,5.92,31.13,1005.79,2038.98,3144.00,3133.00,3400.99,350.13,315.54,15.74,0000 0000 0000 0000 000000
2013-08-06 00:04:09,-0.00,0.68,0.00,27.80,30.60,32.97,5.75,31.00,1005.68,2038.97,3144.00,3133.02,3400.99,349.66,314.75,15.74,0000 0000 0000 0000 000000
2013-08-06 00:05:09,-0.00,0.68,0.00,27.85,30.60,33.00,5.78,30.92,1005.62,2038.99,3144.00,3133.02,3400.99,350.56,315.66,15.75,0000 0000 0000 0000 000000
2013-08-06 00:06:10,0.01,0.68,0.00,27.84,30.60,33.00,5.78,31.04,1005.57,2038.99,3143.99,3133.00,3400.99,350.06,315.34,15.75,0000 0000 0000 0000 000000
2013-08-06 00:07:10,-0.00,0.68,0.00,27.83,30.60,32.99,5.68,30.92,1005.48,2038.96,3143.99,3133.00,3400.98,349.37,314.82,15.76,0000 0000 0000 0000 000000
2013-08-06 00:08:10,-0.02,0.68,0.00,27.87,30.60,33.00,5.70,30.96,1005.46,2038.97,3143.99,3133.00,3400.97,349.20,314.51,15.77,0000 0000 0000 0000 000000
2013-08-06 00:09:10,0.01,0.68,0.00,27.87,30.60,32.99,5.83,31.00,1005.48,2038.98,3143.99,3133.00,3400.98,350.57,316.08,15.77,0000 0000 0000 0000 000000
2013-08-06 00:10:11,0.01,0.68,0.00,27.85,30.60,32.98,5.73,31.17,1005.46,2038.98,3143.99,3133.00,3400.99,350.50,315.43,15.78,0000 0000 0000 0000 000000
2013-08-06 00:11:11,0.00,0.68,0.00,27.88,30.60,32.96,5.83,31.08,1005.41,2038.98,3143.99,3133.00,3400.99,349.35,315.13,15.78,0000 0000 0000 0000 000000
2013-08-06 00:12:11,0.00,0.68,0.00,27.87,30.60,32.99,5.82,30.92,1005.39,2038.98,3143.99,3133.00,3400.98,350.29,315.53,15.79,0000 0000 0000 0000 000000
2013-08-06 00:13:11,0.00,0.68,0.00,27.86,30.60,33.00,5.71,30.75,1005.40,2038.96,3143.98,3133.00,3400.97,350.12,315.14,15.79,0000 0000 0000 0000 000000
2013-08-06 00:14:12,-0.01,0.68,0.00,27.84,30.60,33.01,5.74,31.00,1005.40,2038.94,3143.99,3133.01,3400.99,350.09,315.32,15.80,0000 0000 0000 0000 000000
2013-08-06 00:15:12,-0.01,0.68,0.00,27.84,30.60,33.00,5.66,30.92,1005.40,2038.96,3143.99,3133.00,3400.99,349.33,315.25,15.81,0000 0000 0000 0000 000000
2013-08-06 00:16:12,0.01,0.68,0.00,27.85,30.60,33.00,5.67,30.67,1005.39,2038.96,3143.98,3133.00,3400.98,348.97,314.30,15.81,0000 0000 0000 0000 000000
2013-08-06 00:17:12,0.00,0.68,0.00,27.87,30.60,32.99,5.91,30.96,1005.39,2038.98,3143.97,3133.00,3400.97,350.70,315.84,15.82,0000 0000 0000 0000 000000
2013-08-06 00:18:13,0.01,0.68,0.00,27.85,30.61,33.01,5.86,31.00,1005.39,2038.97,3143.98,3133.00,3400.94,349.76,315.29,15.82,0000 0000 0000 0000 000000
2013-08-06 00:19:13,0.00,0.68,0.00,27.86,30.62,33.04,5.80,30.96,1005.39,2038.98,3143.93,3133.00,3400.90,349.34,314.62,15.83,0000 0000 0000 0000 000000
2013-08-06 00:20:13,0.01,0.68,0.00,27.89,30.62,33.07,5.90,31.08,1005.39,2038.98,3143.94,3133.00,3400.90,350.32,315.48,15.84,0000 0000 0000 0000 000000
2013-08-06 00:21:14,-0.00,0.68,0.00,27.89,30.62,33.02,5.69,31.04,1005.39,2038.98,3143.92,3133.00,3400.92,348.77,314.07,15.84,0000 0000 0000 0000 000000
2013-08-06 00:22:14,0.00,0.68,0.00,27.88,30.62,33.02,5.88,31.13,1005.39,2038.98,3143.87,3133.00,3400.87,349.65,315.50,15.85,0000 0000 0000 0000 000000
2013-08-06 00:23:14,0.02,0.68,0.00,27.87,30.62,33.01,5.74,31.21,1005.39,2038.97,3143.87,3133.00,3400.65,349.30,314.76,15.85,0000 0000 0000 0000 000000
2013-08-06 00:24:14,0.02,0.68,0.00,27.94,30.62,32.99,5.87,31.04,1005.39,2038.97,3143.87,3133.00,3400.45,349.83,314.76,15.86,0000 0000 0000 0000 000000
2013-08-06 00:25:15,0.01,0.68,0.00,27.94,30.62,33.00,5.87,30.96,1005.39,2038.94,3143.75,3133.00,3400.30,349.89,315.02,15.86,0000 0000 0000 0000 000000
2013-08-06 00:26:15,0.01,0.68,0.00,27.91,30.62,33.04,5.86,30.96,1005.39,2038.94,3143.68,3132.99,3400.21,349.53,314.85,15.87,0000 0000 0000 0000 000000
2013-08-06 00:27:15,0.01,0.68,0.00,27.90,30.62,33.05,5.83,31.04,1005.39,2038.92,3143.71,3132.97,3400.14,349.67,314.88,15.88,0000 0000 0000 0000 000000
2013-08-06 00:28:15,-0.00,0.68,0.00,27.92,30.62,33.04,5.81,31.25,1005.39,2038.90,3143.61,3132.98,3400.15,349.87,315.04,15.88,0000 0000 0000 0000 000000
2013-08-06 00:29:16,-0.01,0.68,0.00,27.96,30.62,33.03,5.74,30.92,1005.39,2038.90,3143.66,3132.99,3400.16,350.00,315.49,15.89,0000 0000 0000 0000 000000
2013-08-06 00:30:16,-0.00,0.68,0.00,27.93,30.62,33.04,5.72,30.96,1005.38,2038.87,3143.58,3132.98,3400.18,349.87,315.14,15.89,0000 0000 0000 0000 000000
2013-08-06 00:31:16,0.00,0.68,0.00,27.90,30.62,33.01,5.78,30.88,1005.36,2038.87,3143.48,3132.96,3400.15,349.93,315.45,15.90,0000 0000 0000 0000 000000
2013-08-06 00:32:17,0.02,0.68,0.00,27.91,30.63,33.00,5.76,30.63,1005.34,2038.89,3143.41,3132.97,3400.06,350.75,316.18,15.91,0000 0000 0000 0000 000000
2013-08-06 00:33:17,0.01,0.68,0.00,27.92,30.63,33.02,5.75,30.63,1005.33,2038.88,3143.33,3132.96,3400.05,349.44,314.62,15.91,0000 0000 0000 0000 000000
2013-08-06 00:34:17,0.01,0.68,0.00,27.89,30.64,33.02,5.87,31.08,1005.34,2038.82,3143.20,3132.93,3400.02,350.29,315.43,15.92,0000 0000 0000 0000 000000
2013-08-06 00:35:17,-0.04,0.68,0.00,27.92,30.64,33.04,5.83,31.00,1005.31,2038.61,3143.13,3132.89,3400.01,350.59,315.66,15.92,0000 0000 0000 0000 000000
2013-08-06 00:36:18,-0.10,0.68,0.00,27.94,30.65,33.05,5.91,31.08,1005.29,2038.53,3143.11,3132.82,3400.00,350.91,315.62,15.93,0000 0000 0000 0000 000000
2013-08-06 00:37:18,-0.05,0.68,0.00,27.93,30.65,33.08,5.97,31.04,1005.22,2038.54,3143.08,3132.81,3400.01,349.49,314.63,15.94,0000 0000 0000 0000 000000
2013-08-06 00:38:18,0.01,0.68,0.00,27.88,30.65,33.05,5.71,30.92,1005.15,2038.57,3143.04,3132.77,3400.02,349.93,315.06,15.94,0000 0000 0000 0000 000000
2013-08-06 00:39:19,0.06,0.68,0.00,27.93,30.65,33.07,5.69,30.96,1005.14,2038.73,3143.03,3132.82,3400.02,349.18,314.32,15.95,0000 0000 0000 0000 000000
2013-08-06 00:40:19,0.11,0.68,0.00,27.95,30.65,33.07,5.92,31.04,1005.07,2038.81,3143.02,3132.76,3400.02,350.65,315.59,15.95,0000 0000 0000 0000 000000
2013-08-06 00:41:19,0.06,0.68,0.00,27.96,30.65,33.07,5.73,31.08,1005.07,2038.76,3143.01,3132.61,3400.01,349.69,314.51,15.96,0000 0000 0000 0000 000000
2013-08-06 00:42:19,-0.02,0.68,0.00,27.92,30.65,33.08,5.70,31.08,1004.99,2038.64,3143.01,3132.42,3400.00,349.37,314.46,15.96,0000 0000 0000 0000 000000
2013-08-06 00:43:20,-0.05,0.68,0.00,27.93,30.65,33.10,5.74,31.00,1004.97,2038.52,3143.00,3132.25,3400.00,350.17,315.18,15.97,0000 0000 0000 0000 000000
2013-08-06 00:44:20,-0.03,0.68,0.00,27.96,30.65,33.12,5.96,31.08,1004.95,2038.42,3143.00,3132.17,3400.00,350.27,315.22,15.98,0000 0000 0000 0000 000000
2013-08-06 00:45:20,-0.05,0.68,0.00,27.95,30.65,33.11,5.94,31.13,1004.93,2038.30,3143.00,3132.09,3400.00,350.53,315.44,15.98,0000 0000 0000 0000 000000
2013-08-06 00:46:20,-0.08,0.68,0.00,27.95,30.66,33.09,5.78,31.08,1004.93,2038.22,3143.00,3132.06,3400.00,349.76,315.26,15.99,0000 0000 0000 0000 000000
2013-08-06 00:47:21,-0.06,0.68,0.00,27.98,30.67,33.08,5.73,31.13,1004.93,2038.17,3143.00,3132.08,3400.00,349.57,314.49,15.99,0000 0000 0000 0000 000000
2013-08-06 00:48:21,-0.02,0.68,0.00,27.86,30.67,33.10,5.95,30.96,1004.94,2038.15,3143.00,3132.08,3399.99,350.53,315.55,16.00,0000 0000 0000 0000 000000
2013-08-06 00:49:21,-0.01,0.68,0.00,27.90,30.67,33.10,5.84,31.08,1004.92,2038.16,3143.00,3132.05,3399.99,349.82,315.19,16.01,0000 0000 0000 0000 000000
2013-08-06 00:50:22,0.00,0.68,0.00,27.93,30.67,33.11,5.78,30.92,1004.93,2038.13,3143.00,3132.05,3399.98,350.16,315.28,16.01,0000 0000 0000 0000 000000
2013-08-06 00:51:22,-0.01,0.68,0.00,27.97,30.67,33.11,5.69,30.75,1004.91,2038.10,3143.00,3132.05,3399.98,350.04,315.28,16.02,0000 0000 0000 0000 000000
2013-08-06 00:52:22,-0.01,0.68,0.00,27.99,30.67,33.11,5.79,31.00,1004.91,2038.10,3143.00,3132.03,3399.96,350.23,315.26,16.02,0000 0000 0000 0000 000000
2013-08-06 00:53:22,-0.01,0.68,0.00,27.98,30.67,33.04,5.81,31.13,1004.91,2038.11,3143.00,3132.02,3399.97,349.83,314.78,16.03,0000 0000 0000 0000 000000
2013-08-06 00:54:23,0.03,0.68,0.00,27.98,30.67,33.04,5.79,30.92,1004.90,2038.13,3143.00,3132.03,3399.98,351.38,316.18,16.03,0000 0000 0000 0000 000000
2013-08-06 00:55:23,0.01,0.68,0.00,28.00,30.67,33.07,5.93,31.08,1004.91,2038.09,3142.99,3132.02,3399.97,349.26,314.50,16.04,0000 0000 0000 0000 000000
2013-08-06 00:56:23,-0.02,0.68,0.00,27.96,30.68,33.11,6.00,30.96,1004.92,2038.10,3142.98,3132.01,3399.96,350.76,315.64,16.05,0000 0000 0000 0000 000000
2013-08-06 00:57:23,0.00,0.68,0.00,27.95,30.68,33.16,5.77,31.04,1004.90,2038.07,3142.98,3132.00,3399.86,349.75,315.09,16.05,0000 0000 0000 0000 000000
2013-08-06 00:58:24,0.00,0.68,0.00,27.90,30.69,33.13,5.85,30.92,1004.90,2038.04,3142.99,3132.00,3399.81,350.34,315.31,16.06,0000 0000 0000 0000 000000
2013-08-06 00:59:24,0.00,0.68,0.00,27.82,30.70,33.04,5.83,31.00,1004.90,2038.05,3142.97,3132.00,3399.75,349.77,314.71,16.06,0000 0000 0000 0000 000000
2013-08-06 01:00:24,0.00,0.68,0.00,27.87,30.70,33.08,5.78,31.08,1004.90,2038.05,3142.94,3132.00,3399.84,349.47,314.96,16.07,0000 0000 0000 0000 000000
2013-08-06 01:01:24,-0.01,0.68,0.00,27.88,30.70,33.12,5.88,30.83,1004.90,2038.03,3142.92,3132.00,3399.80,350.87,315.82,16.08,0000 0000 0000 0000 000000
2013-08-06 01:02:25,0.01,0.68,0.00,27.93,30.70,33.12,5.85,30.88,1004.90,2038.05,3142.87,3132.00,3399.72,350.14,314.93,16.08,0000 0000 0000 0000 000000
2013-08-06 01:03:25,0.02,0.68,0.00,27.98,30.70,33.12,5.92,30.88,1004.90,2038.04,3142.82,3132.00,3399.56,350.52,315.51,16.09,0000 0000 0000 0000 000000
2013-08-06 01:04:25,0.01,0.68,0.00,27.97,30.70,33.15,5.90,30.92,1004.88,2038.01,3142.81,3132.00,3399.37,350.74,315.61,16.09,0000 0000 0000 0000 000000
2013-08-06 01:05:25,0.00,0.68,0.00,27.99,30.70,33.18,5.93,30.96,1004.90,2038.03,3142.78,3132.00,3399.36,350.09,315.02,16.10,0000 0000 0000 0000 000000
2013-08-06 01:06:26,0.03,0.68,0.00,27.99,30.70,33.17,5.83,30.92,1004.88,2038.03,3142.58,3131.99,3399.27,350.47,315.25,16.10,0000 0000 0000 0000 000000
2013-08-06 01:07:26,0.04,0.68,0.00,28.01,30.70,33.17,5.94,30.88,1004.87,2038.03,3142.35,3131.99,3399.17,350.28,315.14,16.11,0000 0000 0000 0000 000000
2013-08-06 01:08:26,0.05,0.68,0.00,28.00,30.71,33.15,5.77,30.88,1004.87,2038.04,3142.25,3131.97,3399.10,349.58,314.52,16.12,0000 0000 0000 0000 000000
2013-08-06 01:09:26,0.02,0.68,0.00,28.02,30.72,33.15,5.98,30.88,1004.86,2038.01,3142.16,3131.99,3399.07,350.65,315.28,16.12,0000 0000 0000 0000 000000
2013-08-06 01:10:27,0.01,0.68,0.00,28.07,30.72,33.16,5.76,30.96,1004.87,2038.03,3142.12,3131.99,3399.05,350.27,314.88,16.13,0000 0000 0000 0000 000000
2013-08-06 01:11:27,0.00,0.68,0.00,28.04,30.72,33.18,6.02,30.83,1004.84,2038.02,3142.17,3131.97,3399.03,349.42,314.64,16.13,0000 0000 0000 0000 000000
2013-08-06 01:12:27,-0.01,0.68,0.00,28.01,30.72,33.17,5.98,31.13,1004.79,2038.03,3142.27,3131.99,3399.03,350.03,314.90,16.14,0000 0000 0000 0000 000000
2013-08-06 01:13:27,0.00,0.68,0.00,27.99,30.72,33.16,5.84,31.04,1004.81,2038.04,3142.20,3131.98,3399.03,349.44,314.39,16.15,0000 0000 0000 0000 000000
2013-08-06 01:14:28,0.01,0.68,0.00,28.02,30.72,33.15,5.67,30.96,1004.82,2038.02,3142.10,3131.98,3399.02,349.84,314.73,16.15,0000 0000 0000 0000 000000
2013-08-06 01:15:28,0.00,0.68,0.00,28.06,30.72,33.20,5.77,30.96,1004.81,2038.02,3142.06,3131.97,3399.00,350.41,315.19,16.16,0000 0000 0000 0000 000000
2013-08-06 01:16:28,0.01,0.68,0.00,28.08,30.72,33.19,5.68,30.96,1004.83,2038.04,3142.02,3131.96,3399.00,349.68,314.52,16.16,0000 0000 0000 0000 000000
2013-08-06 01:17:28,0.02,0.68,0.00,28.07,30.73,33.21,5.80,31.04,1004.84,2038.03,3142.02,3131.96,3399.00,350.24,315.04,16.17,0000 0000 0000 0000 000000
2013-08-06 01:18:29,-0.00,0.68,0.00,28.08,30.74,33.20,5.83,30.79,1004.86,2038.02,3142.02,3131.94,3399.00,350.94,315.52,16.18,0000 0000 0000 0000 000000
2013-08-06 01:19:29,-0.00,0.68,0.00,28.08,30.75,33.20,5.83,31.04,1004.86,2038.01,3142.01,3131.94,3399.00,350.41,314.85,16.18,0000 0000 0000 0000 000000
2013-08-06 01:20:29,0.00,0.68,0.00,28.06,30.75,33.21,5.88,30.83,1004.86,2038.01,3142.01,3131.85,3399.00,350.74,315.59,16.19,0000 0000 0000 0000 000000
2013-08-06 01:21:29,0.03,0.68,0.00,28.03,30.75,33.21,5.67,31.00,1004.80,2038.00,3142.00,3131.59,3399.00,349.20,314.21,16.19,0000 0000 0000 0000 000000
2013-08-06 01:22:30,0.05,0.68,0.00,27.94,30.75,33.15,5.83,30.92,1004.77,2038.00,3142.00,3131.38,3398.99,350.24,315.15,16.20,0000 0000 0000 0000 000000
2013-08-06 01:23:30,0.03,0.68,0.00,27.90,30.75,33.15,5.86,31.13,1004.73,2038.00,3142.00,3131.27,3398.97,349.05,314.31,16.20,0000 0000 0000 0000 000000
2013-08-06 01:24:30,0.02,0.68,0.00,27.88,30.75,33.16,5.83,31.04,1004.74,2038.00,3141.99,3131.17,3398.97,350.12,315.10,16.21,0000 0000 0000 0000 000000
2013-08-06 01:25:30,0.02,0.68,0.00,27.91,30.75,33.21,5.85,31.00,1004.63,2038.00,3141.99,3131.11,3398.98,350.32,315.50,16.22,0000 0000 0000 0000 000000
2013-08-06 01:26:31,0.01,0.68,0.00,27.98,30.76,33.19,5.82,31.04,1004.56,2038.00,3141.99,3131.13,3398.98,349.45,314.23,16.22,0000 0000 0000 0000 000000
2013-08-06 01:27:31,0.00,0.68,0.00,28.03,30.77,33.16,5.79,30.79,1004.53,2038.00,3141.99,3131.09,3398.98,350.76,315.57,16.23,0000 0000 0000 0000 000000
2013-08-06 01:28:31,0.00,0.68,0.00,28.07,30.77,33.21,5.89,31.00,1004.48,2038.00,3141.99,3131.07,3398.95,350.11,314.82,16.23,0000 0000 0000 0000 000000
2013-08-06 01:29:31,0.01,0.68,0.00,28.08,30.77,33.23,5.82,30.96,1004.42,2038.00,3141.98,3131.03,3398.93,350.05,314.75,16.24,0000 0000 0000 0000 000000
2013-08-06 01:30:32,0.01,0.68,0.00,28.13,30.77,33.26,5.79,31.00,1004.43,2038.00,3141.97,3131.01,3398.72,350.79,315.34,16.25,0000 0000 0000 0000 000000
2013-08-06 01:31:32,0.03,0.68,0.00,28.16,30.77,33.26,5.89,30.96,1004.41,2038.00,3141.93,3131.01,3398.56,350.54,315.08,16.25,0000 0000 0000 0000 000000
2013-08-06 01:32:32,0.01,0.68,0.00,28.14,30.77,33.27,5.86,31.08,1004.42,2038.00,3141.94,3131.00,3398.42,350.15,314.75,16.26,0000 0000 0000 0000 000000
2013-08-06 01:33:33,0.01,0.68,0.00,28.13,30.78,33.27,5.91,30.58,1004.42,2038.00,3141.94,3131.00,3398.28,350.40,315.00,16.26,0000 0000 0000 0000 000000
2013-08-06 01:34:33,0.01,0.68,0.00,28.09,30.78,33.26,5.74,30.75,1004.41,2037.98,3141.83,3131.00,3398.12,350.33,314.96,16.27,0000 0000 0000 0000 000000
2013-08-06 01:35:33,0.02,0.68,0.00,28.03,30.79,33.23,5.79,30.92,1004.42,2037.99,3141.71,3131.00,3398.06,349.44,314.23,16.27,0000 0000 0000 0000 000000
2013-08-06 01:36:33,0.03,0.68,0.00,28.00,30.80,33.21,5.88,31.08,1004.42,2037.99,3141.49,3131.00,3398.02,350.48,315.19,16.28,0000 0000 0000 0000 000000
2013-08-06 01:37:34,0.02,0.68,0.00,27.97,30.80,33.23,5.94,30.92,1004.41,2037.98,3141.47,3131.00,3398.02,350.28,315.37,16.29,0000 0000 0000 0000 000000
2013-08-06 01:38:34,0.01,0.68,0.00,28.00,30.80,33.28,5.69,30.83,1004.42,2037.99,3141.27,3130.99,3398.01,349.55,314.49,16.29,0000 0000 0000 0000 000000
2013-08-06 01:39:34,0.02,0.68,0.00,28.08,30.80,33.27,5.80,30.96,1004.41,2037.99,3141.16,3130.98,3398.00,349.95,314.63,16.30,0000 0000 0000 0000 000000
2013-08-06 01:40:35,0.01,0.68,0.00,28.13,30.80,33.28,5.97,30.88,1004.41,2037.99,3141.10,3130.98,3398.00,350.70,315.37,16.30,0000 0000 0000 0000 000000
2013-08-06 01:41:35,0.00,0.68,0.00,28.05,30.81,33.21,5.83,31.04,1004.41,2037.98,3141.15,3130.99,3398.00,350.14,314.83,16.31,0000 0000 0000 0000 000000
2013-08-06 01:42:35,-0.01,0.68,0.00,28.00,30.82,33.23,5.85,31.08,1004.41,2037.97,3141.09,3130.99,3398.00,350.15,314.90,16.32,0000 0000 0000 0000 000000
2013-08-06 01:43:35,-0.00,0.68,0.00,27.97,30.82,33.27,5.70,31.00,1004.41,2037.97,3141.03,3130.96,3398.00,348.93,313.83,16.32,0000 0000 0000 0000 000000
2013-08-06 01:44:35,0.02,0.68,0.00,27.98,30.82,33.26,5.64,31.04,1004.41,2037.95,3141.01,3130.86,3398.00,349.21,314.07,16.33,0000 0000 0000 0000 000000
2013-08-06 01:45:36,0.00,0.68,0.00,27.98,30.82,33.20,5.93,31.08,1004.41,2037.96,3141.00,3130.87,3398.00,350.54,315.05,16.33,0000 0000 0000 0000 000000
2013-08-06 01:46:36,0.00,0.68,0.00,28.05,30.82,33.27,6.02,30.88,1004.41,2037.98,3141.00,3130.87,3398.00,349.61,314.41,16.34,0000 0000 0000 0000 000000
2013-08-06 01:47:36,0.00,0.68,0.00,28.11,30.83,33.30,5.88,31.04,1004.40,2037.97,3141.00,3130.81,3397.99,350.55,315.14,16.35,0000 0000 0000 0000 000000
2013-08-06 01:48:36,0.00,0.68,0.00,28.03,30.83,33.29,5.86,30.96,1004.32,2037.98,3141.00,3130.82,3397.99,350.21,315.11,16.35,0000 0000 0000 0000 000000
2013-08-06 01:49:36,0.00,0.68,0.00,28.01,30.84,33.29,5.82,31.04,1004.22,2037.98,3141.00,3130.72,3397.99,350.14,315.06,16.36,0000 0000 0000 0000 000000
2013-08-06 01:50:37,0.01,0.68,0.00,28.06,30.85,33.29,5.69,30.96,1004.11,2037.95,3141.00,3130.52,3397.99,350.55,314.59,16.36,0000 0000 0000 0000 000000
2013-08-06 01:51:37,0.03,0.68,0.00,28.12,30.85,33.32,5.83,30.54,1004.05,2037.97,3140.99,3130.44,3397.99,350.28,314.77,16.37,0000 0000 0000 0000 000000
2013-08-06 01:52:37,0.01,0.68,0.00,28.16,30.85,33.33,5.84,31.04,1004.02,2037.97,3140.99,3130.34,3397.98,349.81,314.30,16.37,0000 0000 0000 0000 000000
2013-08-06 01:53:38,0.03,0.68,0.00,28.21,30.85,33.34,5.77,30.88,1004.01,2037.97,3140.97,3130.17,3397.92,350.14,314.55,16.38,0000 0000 0000 0000 000000
2013-08-06 01:54:38,0.01,0.68,0.00,28.23,30.85,33.34,5.80,30.96,1003.94,2037.92,3140.96,3130.09,3397.90,350.03,314.40,16.39,0000 0000 0000 0000 000000
2013-08-06 01:55:38,0.03,0.68,0.00,28.26,30.86,33.33,5.76,30.96,1003.94,2037.90,3140.95,3130.04,3397.74,349.71,314.09,16.39,0000 0000 0000 0000 000000
2013-08-06 01:56:38,-0.01,0.68,0.00,28.27,30.87,33.35,5.79,31.08,1003.96,2037.88,3140.94,3130.03,3397.64,350.12,314.45,16.40,0000 0000 0000 0000 000000
2013-08-06 01:57:38,-0.00,0.68,0.00,28.27,30.87,33.34,5.69,30.96,1003.96,2037.91,3140.94,3130.03,3397.53,349.28,313.75,16.40,0000 0000 0000 0000 000000
2013-08-06 01:58:39,0.05,0.68,0.00,28.27,30.87,33.36,5.93,30.92,1003.94,2037.85,3140.91,3130.01,3397.31,351.03,315.26,16.41,0000 0000 0000 0000 000000
2013-08-06 01:59:39,-0.03,0.68,0.00,28.27,30.87,33.38,5.88,31.04,1003.96,2037.84,3140.88,3130.00,3397.19,350.00,314.24,16.42,0000 0000 0000 0000 000000
2013-08-06 02:00:39,0.03,0.68,0.00,28.31,30.87,33.37,5.68,31.00,1003.94,2037.81,3140.91,3130.01,3397.12,349.92,314.46,16.42,0000 0000 0000 0000 000000
2013-08-06 02:01:39,-0.05,0.68,0.00,28.26,30.89,33.38,5.79,30.88,1003.93,2037.81,3140.81,3130.00,3397.08,350.36,314.56,16.43,0000 0000 0000 0000 000000
2013-08-06 02:02:40,0.07,0.68,0.00,28.27,30.90,33.38,5.72,30.92,1003.92,2037.78,3140.70,3130.00,3397.05,349.45,313.83,16.43,0000 0000 0000 0000 000000
2013-08-06 02:03:40,-0.07,0.68,0.00,28.30,30.90,33.38,5.78,31.04,1003.92,2037.66,3140.49,3130.00,3397.02,349.59,313.84,16.44,0000 0000 0000 0000 000000
2013-08-06 02:04:40,-0.07,0.68,0.00,28.26,30.90,33.39,5.87,30.96,1003.92,2037.43,3140.36,3130.00,3397.01,350.36,314.14,16.45,0000 0000 0000 0000 000000
2013-08-06 02:05:40,-0.09,0.68,0.00,28.29,30.90,33.38,5.83,30.88,1003.92,2037.34,3140.24,3130.00,3397.01,349.92,314.18,16.45,0000 0000 0000 0000 000000
2013-08-06 02:06:41,-0.08,0.68,0.00,28.30,30.90,33.39,5.86,30.96,1003.88,2037.20,3140.13,3129.99,3397.00,350.31,314.57,16.46,0000 0000 0000 0000 000000
2013-08-06 02:07:41,-0.08,0.68,0.00,28.31,30.90,33.41,5.81,30.92,1003.74,2037.17,3140.06,3129.98,3397.00,349.79,314.04,16.46,0000 0000 0000 0000 000000
2013-08-06 02:08:41,0.00,0.68,0.00,28.36,30.92,33.41,5.76,30.96,1003.66,2037.16,3140.03,3129.97,3396.99,350.19,314.15,16.47,0000 0000 0000 0000 000000
2013-08-06 02:09:41,-0.01,0.68,0.00,28.39,30.92,33.32,5.95,30.96,1003.55,2037.16,3140.01,3129.94,3396.99,350.84,314.52,16.47,0000 0000 0000 0000 000000
2013-08-06 02:10:41,0.01,0.68,0.00,28.39,30.92,33.36,5.68,30.88,1003.50,2037.12,3140.00,3129.84,3396.98,349.84,313.94,16.48,0000 0000 0000 0000 000000
2013-08-06 02:11:42,0.00,0.68,0.00,28.37,30.92,33.38,5.61,30.79,1003.48,2037.12,3140.01,3129.78,3396.99,349.82,314.42,16.49,0000 0000 0000 0000 000000
2013-08-06 02:12:42,0.01,0.68,0.00,28.35,30.92,33.42,5.88,30.75,1003.51,2037.12,3140.00,3129.76,3396.96,351.07,315.07,16.49,0000 0000 0000 0000 000000
2013-08-06 02:13:42,-0.01,0.68,0.00,28.33,30.93,33.43,5.73,30.75,1003.50,2037.14,3140.00,3129.68,3396.92,350.27,314.38,16.50,0000 0000 0000 0000 000000
2013-08-06 02:14:42,0.04,0.68,0.00,28.33,30.94,33.45,5.81,31.04,1003.49,2037.11,3140.00,3129.45,3396.87,350.67,314.73,16.50,0000 0000 0000 0000 000000
2013-08-06 02:15:42,0.07,0.68,0.00,28.36,30.95,33.44,5.69,30.88,1003.48,2037.11,3139.97,3129.29,3396.70,349.50,313.64,16.51,0000 0000 0000 0000 000000
2013-08-06 02:16:43,0.05,0.68,0.00,28.35,30.95,33.45,5.81,31.00,1003.48,2037.06,3139.93,3129.13,3396.43,349.82,313.94,16.52,0000 0000 0000 0000 000000
2013-08-06 02:17:43,0.02,0.68,0.00,28.37,30.95,33.48,5.65,30.96,1003.46,2037.05,3139.90,3129.07,3396.32,349.43,313.12,16.52,0000 0000 0000 0000 000000
2013-08-06 02:18:43,0.02,0.68,0.00,28.35,30.95,33.48,5.99,31.08,1003.47,2037.04,3139.91,3129.03,3396.28,351.00,315.13,16.53,0000 0000 0000 0000 000000
2013-08-06 02:19:43,0.00,0.68,0.00,28.36,30.96,33.49,5.84,30.92,1003.48,2037.07,3139.78,3129.05,3396.22,350.60,314.63,16.53,0000 0000 0000 0000 000000
2013-08-06 02:20:44,0.05,0.68,0.00,28.36,30.97,33.47,5.90,31.04,1003.45,2037.07,3139.53,3129.02,3396.10,350.25,314.25,16.54,0000 0000 0000 0000 000000
2013-08-06 02:21:44,0.04,0.68,0.00,28.38,30.97,33.46,5.74,30.96,1003.46,2037.05,3139.34,3129.00,3396.05,350.06,313.96,16.54,0000 0000 0000 0000 000000
2013-08-06 02:22:44,0.03,0.68,0.00,28.35,30.97,33.46,5.78,31.04,1003.45,2037.03,3139.17,3129.00,3396.02,349.78,314.17,16.55,0000 0000 0000 0000 000000
2013-08-06 02:23:44,0.01,0.68,0.00,28.36,30.97,33.47,5.89,30.96,1003.43,2037.01,3139.09,3129.00,3396.00,350.10,314.00,16.56,0000 0000 0000 0000 000000
2013-08-06 02:24:45,0.00,0.68,0.00,28.43,30.97,33.49,5.78,30.88,1003.44,2037.02,3139.05,3129.00,3396.00,350.52,314.61,16.56,0000 0000 0000 0000 000000
2013-08-06 02:25:45,0.00,0.68,0.00,28.43,30.98,33.52,5.93,30.92,1003.43,2037.01,3139.03,3129.00,3396.00,350.45,314.42,16.57,0000 0000 0000 0000 000000
2013-08-06 02:26:45,0.00,0.68,0.00,28.34,31.00,33.50,5.70,30.79,1003.45,2037.00,3139.01,3128.98,3395.99,349.76,313.89,16.57,0000 0000 0000 0000 000000
2013-08-06 02:27:45,0.00,0.68,0.00,28.27,31.00,33.43,5.73,31.00,1003.44,2037.00,3139.00,3128.96,3395.99,349.95,314.43,16.58,0000 0000 0000 0000 000000
2013-08-06 02:28:45,0.00,0.68,0.00,28.25,31.00,33.44,5.87,30.96,1003.44,2037.00,3139.00,3128.98,3395.99,349.84,314.05,16.59,0000 0000 0000 0000 000000
2013-08-06 02:29:45,0.00,0.68,0.00,28.32,31.00,33.46,5.93,31.00,1003.44,2037.00,3139.00,3128.95,3395.98,350.78,314.83,16.59,0000 0000 0000 0000 000000
2013-08-06 02:30:46,0.00,0.68,0.00,28.40,31.00,33.47,5.75,30.83,1003.44,2037.00,3139.00,3128.81,3395.97,350.14,314.17,16.60,0000 0000 0000 0000 000000
2013-08-06 02:31:46,0.05,0.68,0.00,28.43,31.01,33.48,5.73,30.83,1003.44,2037.00,3138.99,3128.71,3395.95,348.46,312.62,16.60,0000 0000 0000 0000 000000
2013-08-06 02:32:46,0.02,0.68,0.00,28.34,31.02,33.49,5.95,30.96,1003.46,2037.00,3138.98,3128.65,3395.91,350.65,315.12,16.61,0000 0000 0000 0000 000000
2013-08-06 02:33:46,0.01,0.68,0.00,28.36,31.02,33.51,5.73,30.96,1003.45,2037.00,3138.97,3128.47,3395.85,350.51,314.79,16.61,0000 0000 0000 0000 000000
2013-08-06 02:34:46,0.04,0.68,0.00,28.38,31.02,33.51,5.74,30.75,1003.45,2037.00,3138.96,3128.38,3395.81,350.38,314.23,16.62,0000 0000 0000 0000 000000
2013-08-06 02:35:47,0.03,0.68,0.00,28.35,31.02,33.50,5.78,30.96,1003.43,2037.00,3138.96,3128.33,3395.69,350.79,314.59,16.63,0000 0000 0000 0000 000000